Flag for Canada Weather past 2 weeks in Oshawa, Ontario, Canada

Now
73 °F

Scattered clouds.


Feels Like: 77 °F
Forecast: 58 / 73 °F
Wind: 10 mph from North

Location: Toronto Buttonville

Current Time: Jul 24, 2014 at 4:21:58 PM

Latest Report: Jul 24, 2014 at 4:00 PM


Visibility: 15 mi

Pressure: 30.03 "Hg

Humidity: 44%

Dew point: 50 °F

Location of OshawaLocation

Historic Weather in Oshawa — Graph

°F

Oshawa temperature yesterday

Maximum temperature yesterday: 75 °F (at 12:00 AM)
Minimum temperature yesterday: 61 °F (at 11:00 PM)
Average temperature yesterday: 69 °F

Past Weeks' High & Low Weather Summary

 TemperatureHumidityPressure
High84 °F (Jul 12, 4:00 PM)100% (Jul 20, 4:00 AM)30.26 "Hg (Jul 20, 4:00 AM)
Low48 °F (Jul 17, 6:00 AM)33% (Jul 18, 8:00 PM)29.66 "Hg (Jul 15, 2:00 PM)
Average67 °F69%30.02 "Hg
* Reported Jul 9 3:00 PM — Jul 24 3:00 PM, Oshawa, Weather by CustomWeather, © 2014

Note: Actual official high and low records may vary slightly from our data, if they occured in-between our weather recording intervals... More about our weather records

Advertising

Oshawa weather history for previous 24 hours

 ConditionsComfort  
Time TempWeatherWind HumidityBarometerVisibility
3:00 PM
Jul 24
72 °FScattered clouds.12 mph44%30.04 "Hg15 mi
2:00 PM72 °FPassing clouds.8 mph44%30.05 "Hg15 mi
1:00 PM70 °FScattered clouds.9 mph43%30.07 "Hg15 mi
12:00 PM70 °FScattered clouds.7 mph46%30.08 "Hg15 mi
11:00 AM68 °FScattered clouds.7 mph53%30.09 "Hg15 mi
10:00 AM64 °FScattered clouds.9 mph56%30.09 "Hg15 mi
9:00 AM63 °FPassing clouds.8 mph68%30.09 "Hg15 mi
8:00 AM61 °FPassing clouds.7 mph72%30.08 "Hg15 mi
7:00 AM55 °FPassing clouds.6 mph82%30.07 "Hg15 mi
6:00 AM55 °FPassing clouds.6 mph82%30.06 "Hg15 mi
5:00 AM55 °FPassing clouds.5 mph88%30.05 "Hg15 mi
4:00 AM57 °FPassing clouds.6 mph77%30.03 "Hg15 mi
3:00 AM59 °FPassing clouds.3 mph77%30.02 "Hg15 mi
2:00 AM59 °FPassing clouds.6 mph72%30.02 "Hg15 mi
1:00 AM59 °FClear.5 mph82%30.03 "Hg15 mi
12:00 AM59 °FClear.6 mph82%30.03 "Hg15 mi
11:00 PM
Jul 23
61 °FClear.6 mph72%30.02 "Hg15 mi
10:00 PM63 °FPassing clouds.8 mph68%30.01 "Hg15 mi
9:00 PM64 °FPassing clouds.8 mph68%30.00 "Hg15 mi
8:00 PM66 °FScattered clouds.9 mph73%29.99 "Hg15 mi
7:00 PM68 °FPartly sunny.9 mph60%29.97 "Hg15 mi
6:00 PM66 °FOvercast.14 mph73%29.96 "Hg15 mi
5:00 PM66 °FOvercast.14 mph73%29.96 "Hg15 mi
4:00 PM66 °FOvercast.14 mph73%29.96 "Hg15 mi
Weather by CustomWeather, © 2014

See weather overviewHow to use our weather pages